CW8284 Weather Reports


Display with metric or nautical units.
time (UTC)temp
F
wind
direction
speed
MPH
gust
MPH
rain 1hr
in
rain 24hr
in
rain mn
in
humidity
%
barometer
mb
20260505124314 50 135 0.0 0.0 0.00 0.00 0.00 1011.7
20260505123913 50 135 0.0 0.0 0.00 0.00 0.00 1011.7
20260505123513 50 135 0.0 0.0 0.00 0.00 0.00 1011.7
20260505123414 50 135 0.0 0.0 0.00 0.00 0.00 1011.7
20260505123013 50 135 0.0 0.0 0.00 0.00 0.00 1011.8
20260505121413 51 135 0.0 0.0 0.00 0.00 0.00 1011.7
20260505120714 51 135 0.0 0.0 0.00 0.00 0.00 1011.9
20260505120613 51 135 0.0 0.0 0.00 0.00 0.00 1011.9
20260505120213 51 135 0.0 0.0 0.00 0.00 0.00 1011.7
20260505120113 51 135 0.0 0.0 0.00 0.00 0.00 1011.8
20260505120013 51 135 0.0 0.0 0.00 0.00 0.00 1011.9
20260505115913 52 112 0.0 0.0 0.00 0.00 0.00 1011.9
20260505115813 52 157 0.0 0.0 0.00 0.00 0.00 1011.9
20260505115713 52 157 0.0 0.0 0.00 0.00 0.00 1011.9
20260505115313 52 157 0.0 0.0 0.00 0.00 0.00 1011.8
20260505114613 52 135 0.0 0.0 0.00 0.00 0.00 1011.8
20260505114515 52 135 0.0 0.0 0.00 0.00 0.00 1011.9
20260505114113 52 337 0.0 0.0 0.00 0.00 0.00 1011.9
20260505113713 52 337 0.0 0.0 0.00 0.00 0.00 1011.8
20260505113313 52 337 0.0 0.0 0.00 0.00 0.00 1011.8
20260505113213 52 337 0.0 0.0 0.00 0.00 0.00 1012.0
20260505113113 52 337 0.0 0.0 0.00 0.00 0.00 1011.9
20260505112113 52 337 0.0 0.0 0.00 0.00 0.00 1011.9
20260505111713 52 337 0.0 0.0 0.00 0.00 0.00 1011.9
20260505111313 52 337 0.0 0.0 0.00 0.00 0.00 1011.9
20260505110913 51 337 0.0 0.0 0.00 0.00 0.00 1011.9
20260505110513 51 337 0.0 0.0 0.00 0.00 0.00 1012.0
20260505101613 52 202 0.0 1.0 0.00 0.00 0.00 1011.9
20260505095713 52 180 0.0 1.0 0.00 0.00 0.00 1012.1
20260505095613 52 180 2.0 3.0 0.00 0.00 0.00 1012.3
20260505095513 52 247 2.0 4.0 0.00 0.00 0.00 1012.4
20260505095413 52 202 2.0 3.0 0.00 0.00 0.00 1012.3
20260505094713 52 180 2.0 2.0 0.00 0.00 0.00 1012.4
20260505094013 52 225 2.0 2.0 0.00 0.00 0.00 1012.2
20260505093913 52 225 1.0 2.0 0.00 0.00 0.00 1012.1
20260505093513 52 202 2.0 3.0 0.00 0.00 0.00 1012.3
20260505093414 52 247 1.0 2.0 0.00 0.00 0.00 1012.2
20260505092113 52 225 0.0 1.0 0.00 0.00 0.00 1012.5
20260505092015 53 225 1.0 2.0 0.00 0.00 0.00 1012.6
20260505091613 53 225 0.0 1.0 0.00 0.00 0.00 1012.6
20260505091513 53 180 1.0 2.0 0.00 0.00 0.00 1012.5
20260505091413 53 202 1.0 2.0 0.00 0.00 0.00 1012.6
20260505091313 53 225 1.0 3.0 0.00 0.00 0.00 1012.5
20260505091213 53 157 1.0 1.0 0.00 0.00 0.00 1012.5
20260505090813 53 202 1.0 1.0 0.00 0.00 0.00 1012.5
20260505090413 53 135 1.0 4.0 0.00 0.00 0.00 1012.6
20260505090015 53 225 1.0 1.0 0.00 0.00 0.00 1012.7
20260505085916 53 202 1.0 2.0 0.00 0.00 0.00 1012.7
20260505085513 53 135 1.0 1.0 0.00 0.00 0.00 1012.6
20260505085414 53 157 2.0 3.0 0.00 0.00 0.00 1012.7
20260505085313 53 135 3.0 5.0 0.00 0.00 0.00 1012.6
20260505084613 54 202 1.0 3.0 0.00 0.00 0.00 1012.7
20260505084513 54 202 1.0 2.0 0.00 0.00 0.00 1012.8
20260505083813 54 157 1.0 2.0 0.00 0.00 0.00 1013.0
20260505082813 54 202 1.0 2.0 0.00 0.00 0.00 1012.9
20260505082714 54 180 1.0 2.0 0.00 0.00 0.00 1012.9
20260505082313 54 157 1.0 2.0 0.00 0.00 0.00 1012.7
20260505082213 54 202 0.0 1.0 0.00 0.00 0.00 1012.7
20260505081813 54 225 1.0 2.0 0.00 0.00 0.00 1012.7
20260505081413 54 180 0.0 1.0 0.00 0.00 0.00 1012.7
20260505081013 54 180 0.0 1.0 0.00 0.00 0.00 1012.8
20260505080913 54 202 0.0 1.0 0.00 0.00 0.00 1012.8
20260505080813 54 180 1.0 2.0 0.00 0.00 0.00 1012.9
20260505080713 54 202 2.0 3.0 0.00 0.00 0.00 1012.9
20260505080613 54 202 1.0 1.0 0.00 0.00 0.00 1012.7
20260505080513 54 225 0.0 0.0 0.00 0.00 0.00 1013.0
20260505080413 54 180 0.0 1.0 0.00 0.00 0.00 1012.9
20260505080313 54 225 1.0 2.0 0.00 0.00 0.00 1013.0
20260505080213 54 225 0.0 1.0 0.00 0.00 0.00 1013.0
20260505080113 54 202 0.0 0.0 0.00 0.00 0.00 1012.9
20260505080013 54 202 0.0 0.0 0.00 0.00 0.00 1013.0
20260505075913 54 202 0.0 0.0 0.00 0.00 0.00 1012.9
20260505075813 54 180 0.0 1.0 0.00 0.00 0.00 1012.9
20260505075713 54 202 0.0 1.0 0.00 0.00 0.00 1012.9
20260505074713 55 202 1.0 2.0 0.00 0.00 0.00 1013.1
20260505074613 55 202 1.0 2.0 0.00 0.00 0.00 1013.0
20260505074514 54 202 0.0 0.0 0.00 0.00 0.00 1012.9
20260505074113 54 202 0.0 0.0 0.00 0.00 0.00 1013.0
20260505074013 55 202 0.0 0.0 0.00 0.00 0.00 1013.1
20260505070613 55 270 0.0 0.0 0.00 0.00 0.00 1013.1
20260505070513 55 270 0.0 0.0 0.00 0.00 0.00 1012.9
20260505070413 55 270 0.0 0.0 0.00 0.00 0.00 1013.0
20260505070313 55 270 0.0 0.0 0.00 0.00 0.00 1013.0
20260505070213 55 270 0.0 0.0 0.00 0.00 0.00 1013.2
20260505065813 55 270 0.0 0.0 0.00 0.00 0.00 1013.1
20260505065713 55 225 1.0 2.0 0.00 0.00 0.00 1013.1
20260505065313 55 225 0.0 0.0 0.00 0.00 0.00 1013.2
20260505064913 55 202 0.0 0.0 0.00 0.00 0.00 1013.2
20260505064813 55 202 0.0 0.0 0.00 0.00 0.00 1013.2
20260505064713 55 202 0.0 0.0 0.00 0.00 0.00 1013.1
20260505064314 55 180 0.0 0.0 0.00 0.00 0.00 1013.4
20260505063013 56 180 0.0 0.0 0.00 0.00 0.00 1013.4
20260505062913 56 180 0.0 0.0 0.00 0.00 0.00 1013.4
20260505062813 56 112 0.0 1.0 0.00 0.00 0.00 1013.4
20260505062713 56 202 0.0 0.0 0.00 0.00 0.00 1013.3
20260505062613 56 225 0.0 0.0 0.00 0.00 0.00 1013.3
20260505062213 56 112 1.0 2.0 0.00 0.00 0.00 1013.3
20260505061813 56 135 0.0 1.0 0.00 0.00 0.00 1013.3
20260505061414 56 202 0.0 0.0 0.00 0.00 0.00 1013.3
20260505061313 56 180 0.0 0.0 0.00 0.00 0.00 1013.3
20260505061213 56 157 0.0 0.0 0.00 0.00 0.00 1013.3
20260505061113 56 180 0.0 2.0 0.00 0.00 0.00 1013.3
20260505060713 56 202 0.0 0.0 0.00 0.00 0.00 1013.3
20260505060613 56 202 0.0 0.0 0.00 0.00 0.00 1013.5
20260505055613 56 202 1.0 2.0 0.00 0.00 0.00 1013.4
20260505055513 56 180 0.0 1.0 0.00 0.00 0.00 1013.4
20260505055113 56 225 0.0 1.0 0.00 0.00 0.00 1013.4
20260505055013 56 225 1.0 2.0 0.00 0.00 0.00 1013.4
20260505054913 56 202 0.0 2.0 0.00 0.00 0.00 1013.4
20260505054513 56 202 1.0 2.0 0.00 0.00 0.00 1013.4
20260505054413 56 202 1.0 2.0 0.00 0.00 0.00 1013.3
20260505053413 56 202 0.0 0.0 0.00 0.00 0.00 1013.5
20260505053013 56 225 2.0 2.0 0.00 0.00 0.00 1013.3
20260505052913 56 225 2.0 2.0 0.00 0.00 0.00 1013.5
20260505052813 56 225 2.0 3.0 0.00 0.00 0.00 1013.4
20260505052714 56 225 2.0 3.0 0.00 0.00 0.00 1013.5
20260505052313 56 292 1.0 2.0 0.00 0.00 0.00 1013.4
20260505052213 56 225 2.0 2.0 0.00 0.00 0.00 1013.5
20260505051814 56 202 0.0 1.0 0.00 0.00 0.00 1013.6
20260505051715 56 180 0.0 0.0 0.00 0.00 0.00 1013.7
20260505051313 57 202 1.0 2.0 0.00 0.00 0.00 1013.7
20260505051213 57 180 1.0 2.0 0.00 0.00 0.00 1013.6
20260505050813 57 225 3.0 4.0 0.00 0.00 0.00 1013.8
20260505050113 57 247 1.0 2.0 0.00 0.00 0.00 1013.6
20260505041414 57 202 4.0 5.0 0.00 0.00 0.00 1013.6
20260505035513 58 202 3.0 4.0 0.00 0.00 0.00 1013.6
20260505034213 58 225 3.0 4.0 0.00 0.00 0.00 1013.4
20260505032913 58 247 3.0 5.0 0.00 0.00 0.00 1013.4
20260505032814 58 225 4.0 6.0 0.00 0.00 0.00 1013.4
20260505032113 58 247 3.0 5.0 0.00 0.00 0.00 1013.2
20260505032013 58 225 4.0 5.0 0.00 0.00 0.00 1013.4
20260505031613 58 225 4.0 6.0 0.00 0.00 0.00 1013.2
20260505031513 58 225 4.0 5.0 0.00 0.00 0.00 1013.4
20260505031114 58 202 2.0 4.0 0.00 0.00 0.00 1013.2
20260505031013 58 157 3.0 7.0 0.00 0.00 0.00 1013.3
20260505030913 58 157 3.0 5.0 0.00 0.00 0.00 1013.2
20260505030813 58 225 4.0 6.0 0.00 0.00 0.00 1013.2
20260505030114 59 202 4.0 6.0 0.00 0.00 0.00 1013.0
20260505025413 59 225 2.0 5.0 0.00 0.00 0.00 1013.2
20260505025313 59 225 3.0 5.0 0.00 0.00 0.00 1013.1
20260505024913 59 225 3.0 5.0 0.00 0.00 0.00 1013.1
20260505022413 59 225 3.0 4.0 0.00 0.00 0.00 1013.0
20260505021414 60 225 2.0 5.0 0.00 0.00 0.00 1013.0
20260505021113 60 315 3.0 7.0 0.00 0.00 0.00 1012.9
20260505020713 60 270 3.0 6.0 0.00 0.00 0.00 1012.8
20260505020613 60 292 3.0 6.0 0.00 0.00 0.00 1012.8
20260505020513 60 247 2.0 4.0 0.00 0.00 0.00 1012.8
20260505020413 60 270 3.0 4.0 0.00 0.00 0.00 1012.8
20260505020313 60 270 2.0 4.0 0.00 0.00 0.00 1012.8
20260505015913 60 202 2.0 5.0 0.00 0.00 0.00 1012.8
20260505015813 60 225 4.0 6.0 0.00 0.00 0.00 1012.8
20260505015113 60 225 4.0 6.0 0.00 0.00 0.00 1012.9
20260505014113 60 180 6.0 9.0 0.00 0.00 0.00 1012.9
20260505014013 60 225 4.0 9.0 0.00 0.00 0.00 1013.0
20260505013313 61 225 5.0 7.0 0.00 0.00 0.00 1013.0
20260505012913 61 180 6.0 8.0 0.00 0.00 0.00 1012.8
20260505012813 61 225 6.0 10.0 0.00 0.00 0.00 1012.8
20260505012713 61 202 5.0 7.0 0.00 0.00 0.00 1013.0
20260505012613 61 202 6.0 9.0 0.00 0.00 0.00 1012.8
20260505012514 61 225 6.0 9.0 0.00 0.00 0.00 1013.0
20260505012413 61 225 7.0 10.0 0.00 0.00 0.00 1012.9
20260505011413 62 247 5.0 7.0 0.00 0.00 0.00 1012.8
20260505011014 62 225 6.0 10.0 0.00 0.00 0.00 1012.8
20260505010313 62 225 7.0 9.0 0.00 0.00 0.00 1012.7
20260505010213 62 180 6.0 10.0 0.00 0.00 0.00 1012.9
20260505010113 63 225 6.0 8.0 0.00 0.00 0.00 1012.6
20260505010013 63 225 6.0 9.0 0.00 0.00 0.00 1013.0
20260505005913 63 247 5.0 6.0 0.00 0.00 0.00 1012.7
20260505005213 63 202 5.0 8.0 0.00 0.00 0.00 1012.7
20260505005113 63 247 5.0 8.0 0.00 0.00 0.00 1012.8
20260505004713 63 225 2.0 5.0 0.00 0.00 0.00 1012.8
20260505004614 63 180 5.0 8.0 0.00 0.00 0.00 1012.6
20260505004213 63 247 4.0 7.0 0.00 0.00 0.00 1012.8
20260505004113 63 202 5.0 6.0 0.00 0.00 0.00 1012.9
20260505004013 63 225 7.0 10.0 0.00 0.00 0.00 1012.9
20260505003914 63 202 8.0 11.0 0.00 0.00 0.00 1013.0
20260505003213 63 202 3.0 5.0 0.00 0.00 0.00 1012.9
20260505002813 64 180 6.0 9.0 0.00 0.00 0.00 1012.8
20260505002413 64 247 8.0 13.0 0.00 0.00 0.00 1012.8
20260505002313 64 225 6.0 11.0 0.00 0.00 0.00 1012.8
20260505001913 64 225 6.0 8.0 0.00 0.00 0.00 1012.8
20260505001813 65 202 7.0 9.0 0.00 0.00 0.00 1012.8
20260505000814 64 202 4.0 8.0 0.00 0.00 0.00 1012.7
20260505000113 64 225 6.0 10.0 0.00 0.00 0.00 1012.6
20260504235413 64 225 9.0 11.0 0.00 0.00 0.00 1012.8
20260504235013 64 202 8.0 10.0 0.00 0.00 0.00 1012.7
20260504234613 64 225 8.0 10.0 0.00 0.00 0.00 1012.6
20260504234514 65 225 8.0 10.0 0.00 0.00 0.00 1012.6
20260504234413 65 225 8.0 10.0 0.00 0.00 0.00 1012.6
20260504234013 65 112 4.0 8.0 0.00 0.00 0.00 1012.7
20260504233313 66 225 3.0 9.0 0.00 0.00 0.00 1012.4
20260504232613 67 202 5.0 10.0 0.00 0.00 0.00 1012.6
20260504232513 67 270 3.0 5.0 0.00 0.00 0.00 1012.3
20260504232113 67 247 3.0 5.0 0.00 0.00 0.00 1012.4
20260504231113 67 180 5.0 8.0 0.00 0.00 0.00 1012.5
20260504231013 67 202 9.0 13.0 0.00 0.00 0.00 1012.6
20260504230913 67 202 7.0 11.0 0.00 0.00 0.00 1012.4
20260504230213 67 225 5.0 9.0 0.00 0.00 0.00 1012.6
20260504230113 67 225 9.0 12.0 0.00 0.00 0.00 1012.5
20260504225413 66 202 5.0 7.0 0.00 0.00 0.00 1012.8
20260504225014 66 202 3.0 5.0 0.00 0.00 0.00 1012.7
20260504224613 66 247 8.0 11.0 0.00 0.00 0.00 1012.7
20260504224513 66 225 9.0 11.0 0.00 0.00 0.00 1012.6
20260504224413 66 202 5.0 9.0 0.00 0.00 0.00 1012.7
20260504224313 66 202 4.0 7.0 0.00 0.00 0.00 1012.7
20260504223913 66 247 6.0 11.0 0.00 0.00 0.00 1012.9
20260504223813 66 157 8.0 11.0 0.00 0.00 0.00 1012.9
20260504223413 67 225 7.0 11.0 0.00 0.00 0.00 1012.9
20260504223313 68 135 7.0 9.0 0.00 0.00 0.00 1012.6
20260504222913 68 225 8.0 13.0 0.00 0.00 0.00 1012.9
20260504222213 69 202 7.0 12.0 0.00 0.00 0.00 1012.9
20260504222113 69 225 6.0 10.0 0.00 0.00 0.00 1012.9
20260504220513 70 225 7.0 10.0 0.00 0.00 0.00 1013.2
20260504220413 70 202 4.0 9.0 0.00 0.00 0.00 1013.1
20260504220313 69 157 6.0 10.0 0.00 0.00 0.00 1013.1
20260504220213 70 180 5.0 9.0 0.00 0.00 0.00 1013.2
20260504220113 70 202 4.0 7.0 0.00 0.00 0.00 1013.3
20260504215713 69 180 6.0 10.0 0.00 0.00 0.00 1013.3
20260504215613 69 225 9.0 14.0 0.00 0.00 0.00 1013.3
20260504215213 69 270 10.0 14.0 0.00 0.00 0.00 1013.5
20260504215113 69 225 9.0 12.0 0.00 0.00 0.00 1013.4
20260504215013 69 247 9.0 15.0 0.00 0.00 0.00 1013.3
20260504214313 68 202 10.0 14.0 0.00 0.00 0.00 1013.3
20260504214213 68 225 9.0 15.0 0.00 0.00 0.00 1013.3
20260504214113 69 180 9.0 14.0 0.00 0.00 0.00 1013.3
20260504214013 69 225 8.0 11.0 0.00 0.00 0.00 1013.3
20260504213613 69 202 5.0 7.0 0.00 0.00 0.00 1013.3
20260504213513 69 225 4.0 6.0 0.00 0.00 0.00 1013.3
20260504213413 69 202 4.0 10.0 0.00 0.00 0.00 1013.3
20260504213313 69 225 8.0 12.0 0.00 0.00 0.00 1013.3
20260504211713 70 180 4.0 8.0 0.00 0.00 0.00 1013.3
20260504211614 70 225 2.0 4.0 0.00 0.00 0.00 1013.3
20260504211213 70 157 2.0 5.0 0.00 0.00 0.00 1013.4
20260504211113 71 202 3.0 4.0 0.00 0.00 0.00 1013.4
20260504210713 71 225 6.0 9.0 0.00 0.00 0.00 1013.4
20260504210613 72 202 9.0 11.0 0.00 0.00 0.00 1013.3
20260504205913 67 292 3.0 3.0 0.00 0.00 0.00 1013.3
20260504205513 67 202 4.0 7.0 0.00 0.00 0.00 1013.5
20260504204813 68 180 2.0 5.0 0.00 0.00 0.00 1013.5
20260504204413 68 270 2.0 3.0 0.00 0.00 0.00 1013.5
20260504204013 68 270 3.0 4.0 0.00 0.00 0.00 1013.5
20260504203913 68 247 2.0 4.0 0.00 0.00 0.00 1013.4
20260504202614 67 292 1.0 2.0 0.00 0.00 0.00 1013.4
20260504202513 67 292 2.0 3.0 0.00 0.00 0.00 1013.6
20260504202113 67 225 3.0 4.0 0.00 0.00 0.00 1013.4
20260504202013 67 225 3.0 5.0 0.00 0.00 0.00 1013.6
20260504201913 67 202 5.0 8.0 0.00 0.00 0.00 1013.7
20260504201814 67 270 2.0 4.0 0.00 0.00 0.00 1013.7
20260504201114 65 180 3.0 4.0 0.00 0.00 0.00 1013.9
20260504195513 67 180 2.0 3.0 0.00 0.00 0.00 1014.0
20260504195113 67 202 1.0 2.0 0.00 0.00 0.00 1014.0
20260504193813 65 202 3.0 4.0 0.00 0.00 0.00 1014.0
20260504193413 64 225 6.0 7.0 0.00 0.00 0.00 1014.1
20260504193013 63 270 3.0 4.0 0.00 0.00 0.00 1014.3
20260504192913 63 247 3.0 4.0 0.00 0.00 0.00 1014.3
20260504192813 63 0 2.0 3.0 0.00 0.00 0.00 1014.1
20260504192413 62 112 1.0 4.0 0.00 0.00 0.00 1014.3
20260504192013 62 225 5.0 7.0 0.00 0.00 0.00 1014.3
20260504191913 62 202 4.0 6.0 0.00 0.00 0.00 1014.0
20260504191213 62 225 2.0 3.0 0.00 0.00 0.00 1013.9
20260504190213 63 225 3.0 5.0 0.00 0.00 0.00 1014.0
20260504190113 63 202 2.0 4.0 0.00 0.00 0.00 1013.9
20260504185113 65 112 1.0 1.0 0.00 0.00 0.00 1014.4
20260504184114 64 180 1.0 2.0 0.00 0.00 0.00 1014.2
20260504184013 63 180 4.0 9.0 0.00 0.00 0.00 1014.3
20260504183913 63 247 5.0 9.0 0.00 0.00 0.00 1014.0
20260504183813 63 202 3.0 4.0 0.00 0.00 0.00 1014.1
20260504183113 64 225 3.0 6.0 0.00 0.00 0.00 1014.1
20260504181513 64 225 2.0 3.0 0.00 0.00 0.00 1014.3
20260504181413 64 90 1.0 2.0 0.00 0.00 0.00 1014.3
20260504181313 64 112 1.0 1.0 0.00 0.00 0.00 1014.3
20260504180913 64 315 1.0 2.0 0.00 0.00 0.00 1014.3
20260504175613 64 180 1.0 1.0 0.00 0.00 0.00 1014.4
20260504175513 64 157 5.0 7.0 0.00 0.00 0.00 1014.3
20260504175413 64 225 2.0 5.0 0.00 0.00 0.00 1014.3
20260504175313 63 180 2.0 4.0 0.00 0.00 0.00 1014.4
20260504174313 64 90 0.0 0.0 0.00 0.00 0.00 1014.3
20260504173913 64 202 3.0 5.0 0.00 0.00 0.00 1014.3
20260504173813 64 292 0.0 1.0 0.00 0.00 0.00 1014.2
20260504173113 64 180 1.0 2.0 0.00 0.00 0.00 1014.3
20260504172713 63 292 1.0 2.0 0.00 0.00 0.00 1014.4
20260504172313 63 270 2.0 4.0 0.00 0.00 0.00 1014.3
20260504172213 63 315 1.0 2.0 0.00 0.00 0.00 1014.3
20260504171814 62 225 1.0 1.0 0.00 0.00 0.00 1014.3
20260504171713 62 157 1.0 2.0 0.00 0.00 0.00 1014.3
20260504171613 62 225 1.0 2.0 0.00 0.00 0.00 1014.3
20260504171213 62 180 0.0 1.0 0.00 0.00 0.00 1014.3
20260504160413 60 112 2.0 4.0 0.00 0.00 0.00 1014.1
20260504141213 53 90 0.0 0.0 0.00 0.00 0.00 1013.4
20260504140813 53 90 1.0 1.0 0.00 0.00 0.00 1013.5
20260504140713 53 90 0.0 1.0 0.00 0.00 0.00 1013.5
20260504140613 53 112 0.0 0.0 0.00 0.00 0.00 1013.6
20260504140513 53 112 0.0 1.0 0.00 0.00 0.00 1013.4
20260504140113 53 45 1.0 3.0 0.00 0.00 0.00 1013.5
20260504130313 51 45 0.0 0.0 0.00 0.00 0.00 1013.8
20260504130213 51 45 0.0 0.0 0.00 0.00 0.00 1013.6